Location: Eurasberg
(48.3353°N, 11.0839°E)
Time: 09:58:11
(UTC+00:00)

Gbstr 26 Del rocket - Pass Details

Date: 18 January 2026
Orbit: 490 x 1217 km, 51.8° (Epoch: 11 February)

Event Time Altitude Azimuth Distance (km) Brightness Sun altitude
Exits shadow 04:33:36 34° 232° (SW) 1,791 5.0 -23.8°
Maximum altitude 04:37:11 78° 153° (SSE) 1,113 4.3 -23.2°
Drops below altitude 10° 04:43:46 10° 68° (ENE) 2,696 7.2 -22.1°
Sets 04:46:09 0° 67° (ENE) 3,539 7.9 -21.7°
